| time (UTC) | temp F | wind direction | speed MPH | gust MPH | rain 1hr in | rain 24hr in | rain mn in | humidity % | barometer mb |
| 20260902165204 | 68 | 261 | 3.0 | 10.0 | 0.00 | 0.01 | 0.01 | 74 | 1014.8 |
| 20260902164728 | 68 | 0 | 4.0 | 5.0 | 0.00 | 0.01 | 0.01 | 73 | 1014.9 |
| 20260902164204 | 68 | 164 | 2.0 | 9.0 | 0.00 | 0.01 | 0.01 | 73 | 1015.0 |
| 20260902163704 | 69 | 159 | 2.0 | 12.0 | 0.00 | 0.01 | 0.01 | 73 | 1014.9 |
| 20260902162705 | 69 | 195 | 3.0 | 11.0 | 0.00 | 0.01 | 0.01 | 72 | 1015.2 |
| 20260902160705 | 70 | 206 | 3.0 | 10.0 | 0.00 | 0.01 | 0.01 | 67 | 1015.1 |
| 20260902160203 | 70 | 149 | 5.0 | 12.0 | 0.00 | 0.01 | 0.01 | 66 | 1015.0 |
| 20260902155704 | 70 | 223 | 3.0 | 12.0 | 0.00 | 0.01 | 0.01 | 67 | 1015.2 |
| 20260902155204 | 70 | 123 | 1.0 | 11.0 | 0.00 | 0.01 | 0.01 | 67 | 1015.3 |
| 20260902154704 | 69 | 183 | 3.0 | 11.0 | 0.00 | 0.01 | 0.01 | 67 | 1015.4 |
| 20260902154205 | 70 | 240 | 2.0 | 11.0 | 0.00 | 0.01 | 0.01 | 67 | 1015.3 |
| 20260902153704 | 70 | 172 | 5.0 | 11.0 | 0.00 | 0.01 | 0.01 | 66 | 1015.4 |
| 20260902153204 | 69 | 159 | 3.0 | 11.0 | 0.00 | 0.01 | 0.01 | 67 | 1015.5 |
| 20260902152205 | 69 | 147 | 3.0 | 10.0 | 0.00 | 0.01 | 0.01 | 66 | 1015.5 |
| 20260902151705 | 70 | 131 | 3.0 | 10.0 | 0.00 | 0.01 | 0.01 | 66 | 1015.6 |
| 20260902151205 | 70 | 165 | 3.0 | 11.0 | 0.00 | 0.01 | 0.01 | 67 | 1015.5 |
| 20260902150705 | 69 | 71 | 2.0 | 11.0 | 0.00 | 0.01 | 0.01 | 67 | 1015.6 |
| 20260902150204 | 69 | 175 | 3.0 | 12.0 | 0.00 | 0.01 | 0.01 | 66 | 1015.8 |
| 20260902145707 | 69 | 188 | 3.0 | 12.0 | 0.00 | 0.01 | 0.01 | 66 | 1015.8 |
| 20260902145211 | 69 | 204 | 3.0 | 12.0 | 0.00 | 0.01 | 0.01 | 66 | 1015.8 |
| 20260902144704 | 69 | 141 | 4.0 | 11.0 | 0.00 | 0.01 | 0.01 | 65 | 1015.8 |
| 20260902144205 | 69 | 182 | 2.0 | 11.0 | 0.00 | 0.01 | 0.01 | 65 | 1015.8 |
| 20260902143704 | 69 | 130 | 3.0 | 11.0 | 0.00 | 0.01 | 0.01 | 65 | 1015.9 |
| 20260902143206 | 69 | 234 | 3.0 | 13.0 | 0.00 | 0.01 | 0.01 | 64 | 1015.9 |
| 20260902142705 | 70 | 217 | 4.0 | 13.0 | 0.00 | 0.01 | 0.01 | 64 | 1015.9 |
| 20260902142206 | 70 | 240 | 3.0 | 13.0 | 0.00 | 0.01 | 0.01 | 64 | 1016.0 |
| 20260902141704 | 70 | 230 | 3.0 | 13.0 | 0.00 | 0.01 | 0.01 | 64 | 1016.0 |
| 20260902141204 | 69 | 240 | 2.0 | 13.0 | 0.00 | 0.01 | 0.01 | 64 | 1016.1 |
| 20260902140704 | 69 | 279 | 4.0 | 11.0 | 0.00 | 0.01 | 0.01 | 64 | 1016.1 |
| 20260902140211 | 69 | 168 | 3.0 | 11.0 | 0.00 | 0.01 | 0.01 | 65 | 1016.1 |
| 20260902135706 | 69 | 237 | 2.0 | 11.0 | 0.00 | 0.01 | 0.01 | 65 | 1016.1 |
| 20260902135205 | 69 | 204 | 4.0 | 11.0 | 0.00 | 0.01 | 0.01 | 65 | 1016.2 |
| 20260902134704 | 69 | 176 | 3.0 | 11.0 | 0.00 | 0.01 | 0.01 | 65 | 1016.2 |
| 20260902133704 | 69 | 48 | 3.0 | 11.0 | 0.00 | 0.01 | 0.01 | 65 | 1016.3 |
| 20260902133204 | 69 | 199 | 4.0 | 14.0 | 0.00 | 0.01 | 0.01 | 65 | 1016.3 |
| 20260902132704 | 69 | 83 | 5.0 | 14.0 | 0.00 | 0.01 | 0.01 | 64 | 1016.3 |
| 20260902132203 | 69 | 217 | 3.0 | 14.0 | 0.00 | 0.01 | 0.01 | 68 | 1016.3 |
| 20260902131704 | 69 | 90 | 4.0 | 11.0 | 0.00 | 0.01 | 0.01 | 68 | 1016.4 |
| 20260902131205 | 69 | 230 | 4.0 | 10.0 | 0.00 | 0.01 | 0.01 | 68 | 1016.4 |
| 20260902130706 | 69 | 120 | 3.0 | 10.0 | 0.00 | 0.01 | 0.01 | 69 | 1016.5 |
| 20260902130204 | 69 | 188 | 3.0 | 10.0 | 0.00 | 0.01 | 0.01 | 69 | 1016.5 |
| 20260902125204 | 69 | 165 | 4.0 | 13.0 | 0.00 | 0.01 | 0.01 | 67 | 1016.5 |
| 20260902124703 | 69 | 207 | 2.0 | 9.0 | 0.00 | 0.01 | 0.01 | 69 | 1016.6 |
| 20260902124205 | 69 | 265 | 3.0 | 9.0 | 0.00 | 0.01 | 0.01 | 71 | 1016.6 |
| 20260902123706 | 68 | 206 | 3.0 | 10.0 | 0.00 | 0.01 | 0.01 | 73 | 1016.7 |
| 20260902123203 | 68 | 228 | 3.0 | 10.0 | 0.00 | 0.01 | 0.01 | 74 | 1016.7 |
| 20260902122704 | 68 | 192 | 2.0 | 10.0 | 0.00 | 0.01 | 0.01 | 75 | 1016.7 |
| 20260902121704 | 68 | 185 | 4.0 | 11.0 | 0.00 | 0.01 | 0.01 | 74 | 1016.8 |
| 20260902121205 | 69 | 118 | 2.0 | 11.0 | 0.00 | 0.01 | 0.01 | 73 | 1016.8 |
| 20260902120703 | 69 | 189 | 3.0 | 10.0 | 0.00 | 0.01 | 0.01 | 73 | 1016.8 |
| 20260902120206 | 69 | 243 | 2.0 | 10.0 | 0.00 | 0.01 | 0.01 | 73 | 1016.9 |
| 20260902115703 | 69 | 220 | 3.0 | 7.0 | 0.00 | 0.01 | 0.01 | 74 | 1016.9 |
| 20260902115204 | 69 | 189 | 2.0 | 7.0 | 0.01 | 0.01 | 0.01 | 74 | 1016.8 |
| 20260902114704 | 69 | 252 | 4.0 | 7.0 | 0.01 | 0.01 | 0.01 | 75 | 1016.8 |
| 20260902114204 | 68 | 261 | 3.0 | 5.0 | 0.01 | 0.01 | 0.01 | 76 | 1016.9 |
| 20260902113709 | 67 | 176 | 1.0 | 7.0 | 0.01 | 0.01 | 0.01 | 76 | 1016.9 |
| 20260902112706 | 66 | 227 | 2.0 | 5.0 | 0.01 | 0.01 | 0.01 | 77 | 1017.1 |
| 20260902112204 | 66 | 188 | 1.0 | 5.0 | 0.01 | 0.01 | 0.01 | 77 | 1017.2 |
| 20260902111204 | 65 | 192 | 0.0 | 7.0 | 0.01 | 0.01 | 0.01 | 77 | 1017.4 |
| 20260902110704 | 65 | 176 | 2.0 | 7.0 | 0.01 | 0.01 | 0.01 | 77 | 1017.6 |
| 20260902110228 | 65 | 199 | 2.0 | 7.0 | 0.01 | 0.01 | 0.01 | 77 | 1017.6 |
| 20260902105205 | 65 | 212 | 2.0 | 7.0 | 0.00 | 0.00 | 0.00 | 77 | 1017.7 |
| 20260902104204 | 66 | 182 | 2.0 | 6.0 | 0.00 | 0.00 | 0.00 | 76 | 1017.8 |
| 20260902103704 | 67 | 186 | 2.0 | 6.0 | 0.00 | 0.00 | 0.00 | 76 | 1017.6 |
| 20260902103204 | 67 | 183 | 2.0 | 6.0 | 0.00 | 0.00 | 0.00 | 76 | 1017.6 |
| 20260902102725 | 67 | 169 | 1.0 | 6.0 | 0.00 | 0.00 | 0.00 | 76 | 1017.6 |
| 20260902101704 | 67 | 183 | 1.0 | 4.0 | 0.00 | 0.00 | 0.00 | 76 | 1017.7 |
| 20260902101205 | 67 | 180 | 1.0 | 3.0 | 0.00 | 0.00 | 0.00 | 76 | 1017.7 |
| 20260902100705 | 67 | 188 | 1.0 | 4.0 | 0.00 | 0.00 | 0.00 | 76 | 1017.6 |
| 20260902100204 | 66 | 207 | 1.0 | 6.0 | 0.00 | 0.00 | 0.00 | 76 | 1017.6 |
| 20260902095704 | 66 | 206 | 1.0 | 6.0 | 0.00 | 0.00 | 0.00 | 76 | 1017.6 |
| 20260902095204 | 66 | 203 | 2.0 | 6.0 | 0.00 | 0.00 | 0.00 | 76 | 1017.6 |
| 20260902094704 | 66 | 183 | 2.0 | 6.0 | 0.00 | 0.00 | 0.00 | 76 | 1017.6 |
| 20260902094204 | 66 | 173 | 2.0 | 6.0 | 0.00 | 0.00 | 0.00 | 77 | 1017.7 |
| 20260902093704 | 66 | 224 | 2.0 | 4.0 | 0.00 | 0.00 | 0.00 | 77 | 1017.6 |
| 20260902093204 | 66 | 183 | 1.0 | 4.0 | 0.00 | 0.00 | 0.00 | 77 | 1017.6 |
| 20260902092704 | 66 | 186 | 2.0 | 5.0 | 0.00 | 0.00 | 0.00 | 76 | 1017.8 |
| 20260902092205 | 66 | 193 | 2.0 | 5.0 | 0.00 | 0.00 | 0.00 | 76 | 1017.8 |
| 20260902091708 | 66 | 168 | 1.0 | 5.0 | 0.00 | 0.00 | 0.00 | 76 | 1017.8 |
| 20260902091205 | 66 | 196 | 1.0 | 5.0 | 0.00 | 0.00 | 0.00 | 76 | 1017.7 |
| 20260902090704 | 66 | 197 | 2.0 | 5.0 | 0.00 | 0.00 | 0.00 | 76 | 1017.7 |
| 20260902090209 | 66 | 206 | 1.0 | 5.0 | 0.00 | 0.00 | 0.00 | 76 | 1017.7 |
| 20260902085704 | 66 | 217 | 1.0 | 5.0 | 0.00 | 0.00 | 0.00 | 76 | 1017.6 |
| 20260902085207 | 66 | 209 | 2.0 | 4.0 | 0.00 | 0.00 | 0.00 | 76 | 1017.7 |
| 20260902084707 | 66 | 188 | 1.0 | 4.0 | 0.00 | 0.00 | 0.00 | 76 | 1017.6 |
| 20260902084204 | 65 | 179 | 2.0 | 4.0 | 0.00 | 0.00 | 0.00 | 76 | 1017.6 |
| 20260902083704 | 65 | 155 | 1.0 | 4.0 | 0.00 | 0.00 | 0.00 | 76 | 1017.6 |
| 20260902083205 | 65 | 178 | 1.0 | 4.0 | 0.00 | 0.00 | 0.00 | 76 | 1017.5 |
| 20260902082705 | 65 | 196 | 1.0 | 4.0 | 0.00 | 0.00 | 0.00 | 77 | 1017.6 |
| 20260902082205 | 65 | 195 | 1.0 | 3.0 | 0.00 | 0.00 | 0.00 | 77 | 1017.5 |
| 20260902081204 | 65 | 200 | 1.0 | 5.0 | 0.00 | 0.00 | 0.00 | 77 | 1017.5 |
| 20260902080704 | 65 | 200 | 1.0 | 5.0 | 0.00 | 0.00 | 0.00 | 77 | 1017.4 |
| 20260902080205 | 65 | 200 | 1.0 | 4.0 | 0.00 | 0.00 | 0.00 | 77 | 1017.3 |
| 20260902075705 | 64 | 199 | 1.0 | 6.0 | 0.00 | 0.00 | 0.00 | 77 | 1017.3 |
| 20260902075205 | 64 | 197 | 1.0 | 6.0 | 0.00 | 0.00 | 0.00 | 77 | 1017.2 |
| 20260902074205 | 64 | 238 | 0.0 | 4.0 | 0.00 | 0.00 | 0.00 | 77 | 1017.3 |
| 20260902073705 | 64 | 252 | 1.0 | 5.0 | 0.00 | 0.00 | 0.00 | 77 | 1017.3 |
| 20260902073204 | 64 | 255 | 3.0 | 5.0 | 0.00 | 0.00 | 0.00 | 77 | 1017.3 |
| 20260902072706 | 64 | 230 | 1.0 | 5.0 | 0.00 | 0.00 | 0.00 | 77 | 1017.3 |
| 20260902072205 | 63 | 226 | 1.0 | 3.0 | 0.00 | 0.00 | 0.00 | 77 | 1017.3 |
| 20260902071205 | 63 | 221 | 1.0 | 3.0 | 0.00 | 0.00 | 0.00 | 77 | 1017.3 |
| 20260902070204 | 62 | 223 | 0.0 | 4.0 | 0.00 | 0.00 | 0.00 | 77 | 1017.3 |
| 20260902065707 | 62 | 223 | 0.0 | 4.0 | 0.00 | 0.00 | 0.00 | 77 | 1017.2 |
| 20260902065205 | 62 | 224 | 0.0 | 2.0 | 0.00 | 0.00 | 0.00 | 77 | 1017.2 |
| 20260902064704 | 62 | 223 | 0.0 | 3.0 | 0.00 | 0.00 | 0.00 | 77 | 1017.1 |
| 20260902064204 | 62 | 223 | 0.0 | 3.0 | 0.00 | 0.00 | 0.00 | 77 | 1017.0 |
| 20260902063704 | 61 | 224 | 1.0 | 3.0 | 0.00 | 0.00 | 0.00 | 77 | 1017.2 |
| 20260902063204 | 61 | 226 | 0.0 | 2.0 | 0.00 | 0.00 | 0.00 | 77 | 1017.2 |
| 20260902062705 | 61 | 226 | 0.0 | 2.0 | 0.00 | 0.00 | 0.00 | 77 | 1017.3 |
| 20260902061704 | 61 | 226 | 0.0 | 1.0 | 0.00 | 0.00 | 0.00 | 77 | 1017.0 |
| 20260902061204 | 61 | 226 | 0.0 | 1.0 | 0.00 | 0.00 | 0.00 | 77 | 1017.1 |
| 20260902060705 | 61 | 226 | 0.0 | 2.0 | 0.00 | 0.00 | 0.00 | 77 | 1017.0 |
| 20260902060205 | 60 | 226 | 0.0 | 2.0 | 0.00 | 0.00 | 0.00 | 77 | 1017.1 |
| 20260902055705 | 60 | 226 | 0.0 | 2.0 | 0.00 | 0.00 | 0.00 | 77 | 1017.0 |
| 20260902055204 | 60 | 226 | 0.0 | 1.0 | 0.00 | 0.00 | 0.00 | 77 | 1017.0 |
| 20260902054705 | 60 | 226 | 0.0 | 1.0 | 0.00 | 0.00 | 0.00 | 77 | 1016.9 |
| 20260902054206 | 60 | 226 | 0.0 | 1.0 | 0.00 | 0.00 | 0.00 | 77 | 1016.9 |
| 20260902053704 | 60 | 226 | 0.0 | 1.0 | 0.00 | 0.00 | 0.00 | 77 | 1016.9 |
| 20260902053204 | 60 | 226 | 0.0 | 1.0 | 0.00 | 0.00 | 0.00 | 77 | 1016.8 |
| 20260902052704 | 60 | 226 | 0.0 | 1.0 | 0.00 | 0.00 | 0.00 | 77 | 1016.9 |
| 20260902052210 | 60 | 226 | 0.0 | 1.0 | 0.00 | 0.00 | 0.00 | 78 | 1016.9 |
| 20260902051704 | 60 | 226 | 0.0 | 1.0 | 0.00 | 0.00 | 0.00 | 78 | 1016.9 |
| 20260902051204 | 60 | 226 | 0.0 | 1.0 | 0.00 | 0.00 | 0.00 | 78 | 1016.8 |
| 20260902050704 | 61 | 226 | 0.0 | 1.0 | 0.00 | 0.00 | 0.00 | 78 | 1016.9 |
| 20260902045704 | 61 | 226 | 0.0 | 1.0 | 0.00 | 0.00 | 0.00 | 78 | 1016.9 |
| 20260902045205 | 61 | 226 | 0.0 | 1.0 | 0.00 | 0.00 | 0.00 | 78 | 1016.9 |
| 20260902044705 | 61 | 226 | 0.0 | 1.0 | 0.00 | 0.00 | 0.00 | 78 | 1016.9 |
| 20260902044204 | 61 | 226 | 0.0 | 1.0 | 0.00 | 0.00 | 0.00 | 78 | 1016.9 |
| 20260902043704 | 61 | 226 | 0.0 | 1.0 | 0.00 | 0.00 | 0.00 | 78 | 1016.9 |
| 20260902043203 | 61 | 226 | 0.0 | 1.0 | 0.00 | 0.00 | 0.00 | 78 | 1016.8 |
| 20260902042705 | 61 | 226 | 0.0 | 1.0 | 0.00 | 0.00 | 0.00 | 78 | 1016.9 |
| 20260902042206 | 62 | 226 | 0.0 | 1.0 | 0.00 | 0.00 | 0.00 | 78 | 1017.0 |
| 20260902041705 | 62 | 226 | 0.0 | 1.0 | 0.00 | 0.00 | 0.00 | 78 | 1017.0 |
| 20260902041205 | 62 | 226 | 0.0 | 1.0 | 0.00 | 0.00 | 0.00 | 78 | 1017.0 |
| 20260902040704 | 62 | 226 | 0.0 | 0.0 | 0.00 | 0.00 | 0.00 | 78 | 1016.9 |
| 20260902040204 | 62 | 226 | 0.0 | 0.0 | 0.00 | 0.00 | 0.00 | 78 | 1017.0 |
| 20260902035205 | 62 | 226 | 0.0 | 1.0 | 0.00 | 0.00 | 0.00 | 77 | 1017.0 |
| 20260902034705 | 62 | 226 | 0.0 | 1.0 | 0.00 | 0.00 | 0.00 | 77 | 1017.1 |
| 20260902034204 | 62 | 226 | 0.0 | 2.0 | 0.00 | 0.00 | 0.00 | 77 | 1017.1 |
| 20260902033704 | 62 | 226 | 0.0 | 2.0 | 0.00 | 0.00 | 0.00 | 77 | 1017.1 |
| 20260902032704 | 62 | 226 | 0.0 | 2.0 | 0.00 | 0.00 | 0.00 | 77 | 1017.2 |
| 20260902032204 | 62 | 226 | 0.0 | 2.0 | 0.00 | 0.00 | 0.00 | 77 | 1017.1 |
| 20260902031705 | 62 | 226 | 0.0 | 1.0 | 0.00 | 0.00 | 0.00 | 77 | 1017.1 |
| 20260902031204 | 62 | 226 | 0.0 | 2.0 | 0.00 | 0.00 | 0.00 | 77 | 1017.1 |
| 20260902030709 | 62 | 226 | 0.0 | 2.0 | 0.00 | 0.00 | 0.00 | 77 | 1017.0 |
| 20260902030206 | 62 | 226 | 0.0 | 4.0 | 0.00 | 0.00 | 0.00 | 77 | 1017.0 |
| 20260902025705 | 62 | 226 | 0.0 | 4.0 | 0.00 | 0.00 | 0.00 | 77 | 1017.0 |
| 20260902025205 | 62 | 226 | 1.0 | 2.0 | 0.00 | 0.00 | 0.00 | 77 | 1017.1 |
| 20260902024703 | 62 | 227 | 1.0 | 2.0 | 0.00 | 0.00 | 0.00 | 77 | 1017.1 |
| 20260902023704 | 62 | 227 | 0.0 | 2.0 | 0.00 | 0.00 | 0.00 | 77 | 1017.0 |
| 20260902023206 | 62 | 227 | 0.0 | 2.0 | 0.00 | 0.00 | 0.00 | 77 | 1017.0 |
| 20260902022704 | 62 | 227 | 0.0 | 2.0 | 0.00 | 0.00 | 0.00 | 77 | 1017.0 |
| 20260902022204 | 62 | 227 | 0.0 | 3.0 | 0.00 | 0.00 | 0.00 | 77 | 1017.0 |
| 20260902021232 | 62 | 227 | 0.0 | 3.0 | 0.00 | 0.00 | 0.00 | 77 | 1017.0 |
| 20260902015704 | 62 | 227 | 0.0 | 1.0 | 0.00 | 0.00 | 0.00 | 76 | 1017.1 |
| 20260902014704 | 62 | 227 | 0.0 | 1.0 | 0.00 | 0.00 | 0.00 | 76 | 1017.2 |
| 20260902014204 | 63 | 227 | 0.0 | 1.0 | 0.00 | 0.00 | 0.00 | 76 | 1017.3 |
| 20260902013705 | 63 | 227 | 0.0 | 1.0 | 0.00 | 0.00 | 0.00 | 76 | 1017.3 |
| 20260902013204 | 63 | 227 | 0.0 | 1.0 | 0.00 | 0.00 | 0.00 | 76 | 1017.3 |
| 20260902012714 | 63 | 227 | 0.0 | 2.0 | 0.00 | 0.00 | 0.00 | 76 | 1017.3 |
| 20260902012204 | 63 | 227 | 0.0 | 2.0 | 0.00 | 0.00 | 0.00 | 76 | 1017.3 |
| 20260902011704 | 63 | 227 | 0.0 | 2.0 | 0.00 | 0.00 | 0.00 | 75 | 1017.2 |
| 20260902011204 | 63 | 227 | 0.0 | 2.0 | 0.00 | 0.00 | 0.00 | 75 | 1017.3 |
| 20260902010704 | 63 | 233 | 0.0 | 2.0 | 0.00 | 0.00 | 0.00 | 75 | 1017.4 |
| 20260902010204 | 63 | 233 | 1.0 | 3.0 | 0.00 | 0.00 | 0.00 | 75 | 1017.4 |
| 20260902005704 | 63 | 233 | 1.0 | 3.0 | 0.00 | 0.00 | 0.00 | 75 | 1017.4 |
| 20260902005204 | 63 | 233 | 0.0 | 3.0 | 0.00 | 0.00 | 0.00 | 75 | 1017.4 |
| 20260902004704 | 63 | 234 | 0.0 | 4.0 | 0.00 | 0.00 | 0.00 | 75 | 1017.3 |
| 20260902004206 | 63 | 234 | 1.0 | 4.0 | 0.00 | 0.00 | 0.00 | 75 | 1017.4 |
| 20260902003703 | 63 | 234 | 1.0 | 4.0 | 0.00 | 0.00 | 0.00 | 75 | 1017.4 |
| 20260902003204 | 63 | 234 | 0.0 | 3.0 | 0.00 | 0.00 | 0.00 | 75 | 1017.4 |
| 20260902002705 | 63 | 243 | 1.0 | 3.0 | 0.00 | 0.00 | 0.00 | 74 | 1017.5 |
| 20260902002204 | 63 | 243 | 1.0 | 3.0 | 0.00 | 0.00 | 0.00 | 74 | 1017.4 |
| 20260902001705 | 63 | 243 | 1.0 | 3.0 | 0.00 | 0.00 | 0.00 | 74 | 1017.5 |
| 20260902001206 | 64 | 240 | 1.0 | 3.0 | 0.00 | 0.00 | 0.00 | 74 | 1017.4 |
| 20260902000704 | 64 | 241 | 1.0 | 3.0 | 0.00 | 0.00 | 0.00 | 74 | 1017.6 |
| 20260902000204 | 64 | 241 | 1.0 | 3.0 | 0.00 | 0.00 | 0.00 | 74 | 1017.6 |
| 20260901235705 | 64 | 241 | 1.0 | 6.0 | 0.00 | 0.00 | 0.00 | 74 | 1017.6 |
| 20260901235204 | 64 | 243 | 1.0 | 7.0 | 0.00 | 0.00 | 0.00 | 73 | 1017.6 |
| 20260901234704 | 64 | 240 | 1.0 | 7.0 | 0.00 | 0.00 | 0.00 | 73 | 1017.6 |
| 20260901234204 | 64 | 254 | 2.0 | 7.0 | 0.00 | 0.00 | 0.00 | 73 | 1017.6 |
| 20260901233704 | 64 | 196 | 2.0 | 4.0 | 0.00 | 0.00 | 0.00 | 73 | 1017.7 |
| 20260901233203 | 64 | 195 | 0.0 | 4.0 | 0.00 | 0.00 | 0.00 | 73 | 1017.6 |
| 20260901232708 | 64 | 195 | 2.0 | 4.0 | 0.00 | 0.00 | 0.00 | 73 | 1017.6 |
| 20260901232205 | 64 | 193 | 1.0 | 4.0 | 0.00 | 0.00 | 0.00 | 73 | 1017.6 |
| 20260901231705 | 64 | 193 | 1.0 | 4.0 | 0.00 | 0.00 | 0.00 | 73 | 1017.6 |
| 20260901231204 | 64 | 192 | 2.0 | 3.0 | 0.00 | 0.00 | 0.00 | 73 | 1017.6 |
| 20260901230709 | 64 | 189 | 1.0 | 3.0 | 0.00 | 0.00 | 0.00 | 73 | 1017.6 |
| 20260901230203 | 64 | 189 | 0.0 | 3.0 | 0.00 | 0.00 | 0.00 | 73 | 1017.6 |
| 20260901225709 | 64 | 189 | 1.0 | 2.0 | 0.00 | 0.00 | 0.00 | 72 | 1017.7 |
| 20260901224705 | 64 | 189 | 1.0 | 2.0 | 0.00 | 0.00 | 0.00 | 72 | 1017.7 |
| 20260901224204 | 64 | 189 | 1.0 | 2.0 | 0.00 | 0.00 | 0.00 | 72 | 1017.7 |
| 20260901223704 | 64 | 189 | 1.0 | 2.0 | 0.00 | 0.00 | 0.00 | 72 | 1017.6 |
| 20260901223205 | 64 | 189 | 0.0 | 2.0 | 0.00 | 0.00 | 0.00 | 72 | 1017.7 |
| 20260901222705 | 64 | 189 | 1.0 | 3.0 | 0.00 | 0.00 | 0.00 | 72 | 1017.7 |
| 20260901221730 | 64 | 189 | 1.0 | 3.0 | 0.00 | 0.00 | 0.00 | 72 | 1017.7 |
| 20260901220704 | 64 | 188 | 0.0 | 3.0 | 0.00 | 0.00 | 0.00 | 72 | 1017.8 |
| 20260901215709 | 64 | 189 | 1.0 | 3.0 | 0.00 | 0.00 | 0.00 | 72 | 1017.9 |
| 20260901215204 | 64 | 188 | 0.0 | 3.0 | 0.00 | 0.00 | 0.00 | 72 | 1017.9 |
| 20260901214704 | 64 | 188 | 1.0 | 3.0 | 0.00 | 0.00 | 0.00 | 71 | 1018.0 |
| 20260901214211 | 64 | 186 | 0.0 | 3.0 | 0.00 | 0.00 | 0.00 | 71 | 1017.9 |
| 20260901213704 | 64 | 186 | 0.0 | 2.0 | 0.00 | 0.00 | 0.00 | 71 | 1017.8 |
| 20260901213204 | 64 | 186 | 0.0 | 3.0 | 0.00 | 0.00 | 0.00 | 71 | 1017.7 |
| 20260901212704 | 64 | 186 | 0.0 | 3.0 | 0.00 | 0.00 | 0.00 | 71 | 1017.7 |
| 20260901212209 | 64 | 186 | 1.0 | 2.0 | 0.00 | 0.00 | 0.00 | 71 | 1017.9 |
| 20260901211704 | 64 | 186 | 0.0 | 2.0 | 0.00 | 0.00 | 0.00 | 70 | 1017.8 |
| 20260901211204 | 65 | 186 | 0.0 | 5.0 | 0.00 | 0.00 | 0.00 | 70 | 1017.7 |
| 20260901210705 | 65 | 186 | 0.0 | 5.0 | 0.00 | 0.00 | 0.00 | 70 | 1017.7 |
| 20260901205705 | 65 | 186 | 1.0 | 4.0 | 0.00 | 0.00 | 0.00 | 70 | 1017.7 |
| 20260901205204 | 65 | 176 | 0.0 | 4.0 | 0.00 | 0.00 | 0.00 | 69 | 1017.7 |
| 20260901204704 | 65 | 176 | 1.0 | 4.0 | 0.00 | 0.00 | 0.00 | 69 | 1017.7 |
| 20260901204204 | 65 | 173 | 1.0 | 4.0 | 0.00 | 0.00 | 0.00 | 69 | 1017.8 |
| 20260901203704 | 65 | 172 | 0.0 | 5.0 | 0.00 | 0.00 | 0.00 | 69 | 1017.7 |
| 20260901203204 | 65 | 172 | 1.0 | 5.0 | 0.00 | 0.00 | 0.00 | 68 | 1017.6 |
| 20260901201704 | 66 | 207 | 1.0 | 4.0 | 0.00 | 0.00 | 0.00 | 67 | 1017.6 |
| 20260901201204 | 66 | 207 | 1.0 | 6.0 | 0.00 | 0.00 | 0.00 | 67 | 1017.5 |
| 20260901200704 | 66 | 213 | 1.0 | 6.0 | 0.00 | 0.00 | 0.00 | 67 | 1017.5 |
| 20260901200204 | 66 | 227 | 0.0 | 7.0 | 0.00 | 0.00 | 0.00 | 67 | 1017.6 |
| 20260901195704 | 66 | 172 | 1.0 | 7.0 | 0.00 | 0.00 | 0.00 | 67 | 1017.5 |
| 20260901195204 | 66 | 171 | 2.0 | 7.0 | 0.00 | 0.00 | 0.00 | 66 | 1017.6 |
| 20260901194705 | 67 | 196 | 1.0 | 6.0 | 0.00 | 0.00 | 0.00 | 66 | 1017.6 |
| 20260901194204 | 67 | 207 | 1.0 | 7.0 | 0.00 | 0.00 | 0.00 | 66 | 1017.5 |
| 20260901193704 | 67 | 185 | 2.0 | 7.0 | 0.00 | 0.00 | 0.00 | 66 | 1017.4 |
| 20260901193204 | 67 | 221 | 2.0 | 7.0 | 0.00 | 0.00 | 0.00 | 65 | 1017.4 |
| 20260901192704 | 67 | 182 | 2.0 | 7.0 | 0.00 | 0.00 | 0.00 | 65 | 1017.4 |
| 20260901191706 | 68 | 179 | 1.0 | 6.0 | 0.00 | 0.00 | 0.00 | 64 | 1017.3 |
| 20260901191204 | 68 | 185 | 0.0 | 6.0 | 0.00 | 0.00 | 0.00 | 64 | 1017.2 |
| 20260901190703 | 68 | 175 | 2.0 | 4.0 | 0.00 | 0.00 | 0.00 | 64 | 1017.2 |
| 20260901190204 | 68 | 231 | 1.0 | 6.0 | 0.00 | 0.00 | 0.00 | 63 | 1017.1 |
| 20260901185204 | 69 | 250 | 2.0 | 9.0 | 0.00 | 0.00 | 0.00 | 62 | 1017.0 |
| 20260901184204 | 69 | 200 | 1.0 | 7.0 | 0.00 | 0.00 | 0.00 | 60 | 1017.0 |
| 20260901183705 | 69 | 206 | 2.0 | 6.0 | 0.00 | 0.00 | 0.00 | 58 | 1017.1 |
| 20260901182704 | 70 | 200 | 1.0 | 10.0 | 0.00 | 0.00 | 0.00 | 55 | 1017.1 |
| 20260901182204 | 70 | 233 | 2.0 | 11.0 | 0.00 | 0.00 | 0.00 | 54 | 1017.0 |
| 20260901181704 | 70 | 183 | 2.0 | 11.0 | 0.00 | 0.00 | 0.00 | 52 | 1017.0 |
| 20260901181205 | 71 | 244 | 4.0 | 11.0 | 0.00 | 0.00 | 0.00 | 51 | 1016.9 |
| 20260901180704 | 71 | 247 | 2.0 | 5.0 | 0.00 | 0.00 | 0.00 | 49 | 1016.9 |
| 20260901175704 | 71 | 186 | 1.0 | 5.0 | 0.00 | 0.00 | 0.00 | 47 | 1016.8 |
| 20260901175205 | 72 | 161 | 2.0 | 6.0 | 0.00 | 0.00 | 0.00 | 46 | 1016.7 |
| 20260901174204 | 72 | 202 | 1.0 | 10.0 | 0.00 | 0.00 | 0.00 | 46 | 1016.9 |
| 20260901173739 | 73 | 254 | 3.0 | 10.0 | 0.00 | 0.00 | 0.00 | 45 | 1016.6 |
| 20260901173204 | 73 | 240 | 3.0 | 6.0 | 0.00 | 0.00 | 0.00 | 45 | 1016.6 |
| 20260901172705 | 73 | 202 | 2.0 | 7.0 | 0.00 | 0.00 | 0.00 | 45 | 1016.7 |
| 20260901172204 | 72 | 243 | 2.0 | 7.0 | 0.00 | 0.00 | 0.00 | 45 | 1016.7 |
| 20260901171705 | 72 | 231 | 4.0 | 7.0 | 0.00 | 0.00 | 0.00 | 45 | 1016.8 |
| 20260901171204 | 72 | 240 | 2.0 | 7.0 | 0.00 | 0.00 | 0.00 | 46 | 1016.8 |
| 20260901170704 | 72 | 202 | 1.0 | 5.0 | 0.00 | 0.00 | 0.00 | 46 | 1016.7 |
| 20260901170204 | 72 | 200 | 1.0 | 6.0 | 0.00 | 0.00 | 0.00 | 46 | 1016.6 |
| 20260901165714 | 72 | 193 | 2.0 | 6.0 | 0.00 | 0.00 | 0.00 | 46 | 1016.7 |